Printer-friendly version

IAU Minor Planet Center

Minor Planet Center

MPEC 2000-F26: 2000 EY106

The following Minor Planet Electronic Circular may be linked-to from your own Web pages, but must not otherwise be redistributed electronically.


Read MPEC 2000-F25 Read MPEC 2000-F27


M.P.E.C. 2000-F26                                Issued 2000 Mar. 23, 23:33 UT

     The Minor Planet Electronic Circulars contain information on unusual
         minor planets and routine data on comets.  They are published
   on behalf of Commission 20 of the International Astronomical Union by the
          Minor Planet Center, Smithsonian Astrophysical Observatory,
                          Cambridge, MA 02138, U.S.A.

             Prepared using the Tamkin Foundation Computer Network

             BMARSDEN@CFA.HARVARD.EDU or GWILLIAMS@CFA.HARVARD.EDU
          URL http://cfa-www.harvard.edu/iau/mpc.html  ISSN 1523-6714

                                  2000 EY106

Observations:
     K00EA6Y* C2000 03 14.37271 13 44 18.70 -19 39 28.5          18.4        704
     K00EA6Y  C2000 03 14.38538 13 44 13.20 -19 40 29.4          18.6        704
     K00EA6Y  C2000 03 14.39810 13 44 07.69 -19 41 30.4          19.1        704
     K00EA6Y  C2000 03 14.41077 13 44 02.23 -19 42 31.4          18.8        704
     K00EA6Y  C2000 03 14.42345 13 43 56.72 -19 43 32.3          19.0        704
     K00EA6Y  C2000 03 15.32506 13 37 35.99 -20 54 23.9          18.1 V      651
     K00EA6Y  C2000 03 15.32659 13 37 35.33 -20 54 31.0                      651
     K00EA6Y  C2000 03 15.32795 13 37 34.70 -20 54 37.4                      651
     K00EA6Y  C2000 03 15.38825 13 37 08.38 -20 59 18.9          18.6        704
     K00EA6Y  C2000 03 15.40092 13 37 02.83 -21 00 17.4          18.4        704
     K00EA6Y  C2000 03 15.41364 13 36 57.33 -21 01 16.0          18.2        704
     K00EA6Y  C2000 03 15.42632 13 36 51.72 -21 02 13.6          18.2        704
     K00EA6Y 1C2000 03 15.64010213 35 21.60 -21 18 09.6          18.2 R      413
     K00EA6Y 1C2000 03 15.64156013 35 20.96 -21 18 16.3          18.2 R      413
     K00EA6Y  C2000 03 15.68278 13 35 02.88 -21 21 24.8          19.7        422
     K00EA6Y IC2000 03 15.68365 13 35 02.52 -21 21 28.6          19.6        422
     K00EA6Y  C2000 03 15.68630 13 35 01.32 -21 21 41.2          19.7        422
     K00EA6Y  C2000 03 17.38857 13 22 53.89 -23 26 59.3          18.1        704
     K00EA6Y  C2000 03 17.40118 13 22 48.29 -23 27 52.3          18.5        704
     K00EA6Y  C2000 03 17.41378 13 22 42.82 -23 28 45.5          18.4        704
     K00EA6Y  C2000 03 17.42640 13 22 37.28 -23 29 37.7          18.6        704
     K00EA6Y  C2000 03 17.43914 13 22 31.67 -23 30 32.2          18.4        704

Observer details:
413 Siding Spring.  Observer R. H. McNaught.  1.0-m f/8 reflector + CCD.
422 Loomberah.  Observer G. J. Garradd.  0.45-m f/5.4 reflector + CCD.
651 Grasslands Observatory, Tucson.  Observer J. E. McGaha.  0.62-m f/5.1
    reflector + CCD.
704 Lincoln Laboratory ETS, New Mexico.  Observers M. Blythe, F. Shelly,
    M. Bezpalko, M. Elowitz, R. Huber.  Measurers J. Stuart, H. Viggh,
    R. Sayer, J. B. Evans.  1.0-m f/2.15 reflector + CCD.

Orbital elements:
2000 EY106
Epoch 2000 Feb. 26.0 TT = JDT 2451600.5                 Williams
M  24.67901              (2000.0)            P               Q
n   0.43238183     Peri.  103.38641     -0.23274126     -0.97253816
a   1.7320394      Node     0.09261     +0.45177291     -0.10903872
e   0.4652217      Incl.   38.86706     +0.86123907     -0.20562121
P   2.28           H   19.2           G   0.15
From 22 observations 2000 Mar. 14-17.

Ephemeris:
2000 EY106               a,e,i = 1.73, 0.47, 39                  q = 0.9263
Date    TT    R. A. (2000) Decl.     Delta      r     Elong.  Phase     V
2000 03 17    13 25.68   -22 58.9    0.319    1.272   146.0    25.9    18.4
2000 03 22    12 50.36   -28 11.5    0.344    1.307   150.5    22.0    18.5
2000 03 27    12 17.50   -31 49.0    0.378    1.341   150.8    21.3    18.8
2000 04 01    11 49.09   -34 04.0    0.422    1.375   148.0    22.6    19.1
2000 04 06    11 26.01   -35 18.2    0.472    1.409   143.9    24.7    19.5
2000 04 11    11 08.17   -35 52.6    0.527    1.444   139.4    26.9    19.8
2000 04 16    10 54.97   -36 03.0    0.586    1.478   135.0    28.7    20.1
2000 04 21    10 45.64   -36 00.1    0.649    1.511   130.9    30.2    20.5
2000 04 26    10 39.47   -35 50.6    0.713    1.545   127.0    31.4    20.7
2000 05 01    10 35.85   -35 38.4    0.780    1.577   123.3    32.3    21.0
2000 05 06    10 34.32   -35 26.3    0.849    1.610   119.9    32.9    21.3
2000 05 11    10 34.49   -35 16.0    0.918    1.642   116.7    33.3    21.5
2000 05 16    10 36.03   -35 08.3    0.989    1.674   113.6    33.6    21.7
2000 05 21    10 38.72   -35 03.7    1.061    1.705   110.7    33.7    21.9
2000 05 26    10 42.34   -35 02.3    1.133    1.735   107.8    33.8    22.1

Gareth V. Williams           (C) Copyright 2000 MPC           M.P.E.C. 2000-F26

Read MPEC 2000-F25 Read MPEC 2000-F27


Our Web policy. Index to the CBAT/MPC/ICQ pages.


Valid HTML 4.01!